Regional Weather Roundup
Issued by NWS

Home | Current Version | Previous Version | Text Only | Print | Product List | Glossary Off
Versions: 1 2 3 4 5 6 7 8 9 10 11 12 13 14 15 16 17 18 19 20 21 22 23 24 25 26 27 28 29 30 31 32 33 34 35 36 37 38 39 40 41 42 43 44 45 46 47 48 49 50

000
ASUS43 KMPX 191801
RWRMN
WEATHER ROUNDUP FOR MINNESOTA
NATIONAL WEATHER SERVICE TWIN CITIES/CHANHASSEN MN
1200 PM CST FRI DEC 19 2014


NOTE: "FAIR" INDICATES FEW OR NO CLOUDS BELOW 12,000 FEET WITH NO
SIGNIFICANT WEATHER AND/OR OBSTRUCTIONS TO VISIBILITY. N/A MEANS
CURRENT SKY AND/OR WEATHER CONDITIONS ARE NOT AVAILABLE.

MNZ060>063-068>070-191900-
   Twin Cities Metro

CITY           SKY/WX    TMP DP  RH WIND       PRES   REMARKS
TWIN CITIES    CLOUDY    26  21  81 SE8       30.23F WCI  18
6HR MIN TEMP:  22; 6HR MAX TEMP:  26; 6HR PCP: TRACE;

ST PAUL        CLOUDY    26  21  81 SE8       30.25F WCI  18
CRYSTAL        CLOUDY    27  22  81 S9        30.21F HAZE    WCI  18
BLAINE         CLOUDY    27  23  86 SE8       30.22F WCI  18
LAKEVILLE      PTSUNNY   27  23  86 SE7       30.22S FOG     WCI  19
EDEN PRAIRIE   CLOUDY    27  22  81 SE7       30.21F HAZE    WCI  19
6HR MIN TEMP:  22; 6HR MAX TEMP:  27;

SOUTH ST PAUL  CLOUDY    27  22  80 SE3       30.24S
LAKE ELMO      CLOUDY    27  23  86 S7        30.24S WCI  19
$$
MNZ001>005-007-008-013>017-022>024-027-028-191900-
   Northwest Minnesota

CITY           SKY/WX    TMP DP  RH WIND       PRES   REMARKS
BEMIDJI        CLOUDY    21  20  96 SE9       30.10F FOG     WCI  11
HALLOCK        CLOUDY    27  25  93 S10       30.05F FOG     WCI  17
ROSEAU         CLOUDY    25  19  80 S10       30.08F FOG     WCI  15
WARROAD        CLOUDY    23  19  86 S10       30.09F FOG     WCI  12
THIEF RVR FALL CLOUDY    25  23  93 S12       30.07F WCI  14
CROOKSTON      CLOUDY    27  25  93 S14       30.07F FOG     WCI  15
FOSSTON        CLOUDY    23  21  93 SE8       30.08F FOG     WCI  14
DETROIT LAKES  CLOUDY    27  27 100 SE12      30.07F FOG     WCI  16
MOORHEAD       CLOUDY    28  28 100 S13G18    30.07F FOG     WCI  18
PARK RAPIDS    FOG       23  21  92 SE10      30.10F VSB 3/4 WCI  12
MAHNOMEN       CLOUDY    24  23  95 SE10      30.07F FOG     WCI  13
$$
MNZ006-009>011-018-025>026-191900-
   North Central Minnesota

CITY           SKY/WX    TMP DP  RH WIND       PRES   REMARKS
BAUDETTE       CLOUDY    23  18  81 S7        30.10F WCI  15
FLAG ISLAND    CLOUDY    21  19  93 S17       30.09F WCI   7
INTL FALLS     LGT SNOW  23  18  81 SE9       30.14F WCI  13
6HR MIN TEMP:  21; 6HR MAX TEMP:  23; 6HR PCP: TRACE;

WASKISH        CLOUDY    23  19  86 SE8       30.11F WCI  14
BIG FORK       LGT SNOW  23  19  86 SE6       30.14F WCI  16
LONGVILLE      CLOUDY    21  19  93 SE8       30.14F FOG     WCI  12
GRAND RAPIDS   CLOUDY    21  18  86 SE10      30.14F WCI  10
CRANE LAKE     CLOUDY    21  18  86 S7        30.19F WCI  13
ORR            CLOUDY    21  16  79 SE7       30.13F WCI  13
COOK           CLOUDY    21  18  86 S7        30.16F WCI  13
WALKER         CLOUDY    20  19  96 SE6       30.12F FOG     WCI  13
$$
MNZ012-019>021-037-191900-
   Northeast Minnesota

CITY           SKY/WX    TMP DP  RH WIND       PRES   REMARKS
DULUTH         LGT SNOW  23  18  81 S9        30.18F WCI  13
6HR MIN TEMP:  20; 6HR MAX TEMP:  23; 6HR PCP: TRACE;

ELY            CLOUDY    21  18  86 S5        30.17F WCI  15
HIBBING        CLOUDY    23  17  78 S6        30.16F WCI  16
EVELETH        CLOUDY    23  19  86 S9        30.18F WCI  13
DULUTH HARBOR  LGT SNOW  27  21  80 CALM      30.25F
SILVER BAY     CLOUDY    25  21  86 CALM      30.20F
GRAND MARAIS     N/A     30  23  75 S10       30.25F WCI  21
G MARAIS ARPRT CLOUDY    21  18  86 SE8       30.18S WCI  12
$$
MNZ029>031-032-039>041-046>048-054>057-064-191900-
   West Central Minnesota

CITY           SKY/WX    TMP DP  RH WIND       PRES   REMARKS
FERGUS FALLS   CLOUDY    27  27 100 S14       30.11F FOG     WCI  15
WHEATON        CLOUDY    28  27  93 S13       30.09F FOG     WCI  18
MORRIS         MOSUNNY   30  28  93 S13       30.09F FOG     WCI  20
ALEXANDRIA     CLOUDY    27  25  92 S9        30.10F FOG     WCI  18
ELBOW LAKE     CLOUDY    27  26  96 S14       30.08F FOG     WCI  16
WADENA         FOG       21  21 100 NW5       30.10F VSB 3/4 WCI  15
GLENWOOD       CLOUDY    27  27 100 S10       30.11F FOG     WCI  17
APPLETON       CLOUDY    30  28  93 S6        30.11F WCI  24
BENSON         CLOUDY    30  27  86 SW12      30.11F FOG     WCI  21
ORTONVILLE     CLOUDY    30  27  86 S9G16     30.09S WCI  22
MADISON        MOSUNNY   34  30  86 S6        30.10F FOG     WCI  29
WILLMAR        CLOUDY    30  27  86 S10       30.14F FOG     WCI  21
$$
MNZ033>034-036-042>043-049>051-058-059-191900-
   Central Minnesota

CITY           SKY/WX    TMP DP  RH WIND       PRES   REMARKS
ST CLOUD       CLOUDY    25  21  85 SE9       30.18F FOG     WCI  15
6HR MIN TEMP:  22; 6HR MAX TEMP:  25;

SAUK CENTRE    FOG       25  25  98 SE9       30.13F VSB 1   WCI  16
PAYNESVILLE    CLOUDY    24  24 100 E8        30.15F FOG     WCI  15
AITKIN         CLOUDY    25  19  80 S9        30.15F WCI  15
PINE RIVER     CLOUDY    21  21 100 SE10      30.16F FOG     WCI  10
BRAINERD       CLOUDY    22  20  92 SE6       30.16F FOG     WCI  14
STAPLES        CLOUDY    21  21 100 SE8       30.13S FOG     WCI  12
LONG PRAIRIE   FOG       23  23 100 SE8       30.13F VSB 1   WCI  14
LITTLE FALLS   CLOUDY    23  21  93 SE6       30.16F FOG     WCI  16
LITCHFIELD     CLOUDY    28  28 100 SE5       30.17F FOG     WCI  23
BUFFALO        CLOUDY    26  23  86 SE6       30.20F FOG     WCI  20
MAPLE LAKE     CLOUDY    27  26  93 SE6       30.19F FOG     WCI  21
$$
MNZ037-044-045-052-053-191900-
   East Central Minnesota

CITY           SKY/WX    TMP DP  RH WIND       PRES   REMARKS
PRINCETON      CLOUDY    27  21  80 CALM      30.19F FOG
MORA           PTSUNNY   25  19  80 SE5       30.22F WCI  19
CAMBRIDGE      CLOUDY    27  18  69 SE5       30.20S WCI  21
RUSH CITY      CLOUDY    25  20  82 SE6       30.22F WCI  18
MOOSE LAKE     CLOUDY    25  19  80 SE3       30.18F
HINCKLEY       CLOUDY    27  21  80 CALM      30.22F
CLOQUET        CLOUDY    23  19  86 S3        30.18F
MCGREGOR       CLOUDY    25  21  86 SE9       30.18F WCI  15
$$
MNZ071>073-080-081-089-090-097-098-191900-
   Southwest Minnesota

CITY           SKY/WX    TMP DP  RH WIND       PRES   REMARKS
MONTEVIDEO     CLOUDY    30  30 100 SW10      30.13F FOG     WCI  21
GRANITE FALLS  CLOUDY    30  27  88 S14       30.15F FOG     WCI  20
CANBY          CLOUDY    31  29  92 S9G16     30.12F FOG     WCI  23
MARSHALL       CLOUDY    30  27  86 SW14      30.13F WCI  20
REDWOOD FALLS  CLOUDY    32  29  88 S12       30.15F FOG     WCI  23
OLIVIA         CLOUDY    32  30  93 S10       30.14F FOG     WCI  24
PIPESTONE      CLOUDY    28  28 100 S7        30.10F FOG     WCI  21
WINDOM         CLOUDY    30  28  93 S8        30.15F FOG     WCI  23
WORTHINGTON    CLOUDY    30  27  86 SW18      30.14F WCI  18
JACKSON        CLOUDY    32  30  93 S9        30.16F WCI  24
TRACY          CLOUDY    31  29  92 S7        30.13F FOG     WCI  24
SLAYTON        CLOUDY    29  28  99 S7        30.13S FOG     WCI  21
$$
MNZ065>067-074>077-082>085-091>093-191900-
   South Central Minnesota

CITY           SKY/WX    TMP DP  RH WIND       PRES   REMARKS
MANKATO        CLOUDY    28  25  86 S8        30.21S WCI  20
NEW ULM        CLOUDY    28  28 100 S10       30.19S FOG     WCI  19
ST JAMES       CLOUDY    32  28  86 S12       30.20S FOG     WCI  23
FAIRMONT       CLOUDY    30  25  80 S13       30.19S WCI  20
GLENCOE        CLOUDY    30  28  92 SE8       30.18F FOG     WCI  22
FARIBAULT      CLOUDY    28  25  86 S5        30.22S FOG     WCI  23
OWATONNA       SUNNY     28  25  86 SE8       30.22S FOG     WCI  20
WASECA         CLOUDY    30  27  86 S7        30.23S FOG     WCI  23
ALBERT LEA     PTSUNNY   28  27  93 S7        30.21F FOG     WCI  21
$$
MNZ078>079-086>088-094>096-191900-
   Southeast Minnesota

CITY           SKY/WX    TMP DP  RH WIND       PRES   REMARKS
ROCHESTER      CLOUDY    27  21  78 S9        30.23F WCI  18
6HR MIN TEMP:  22; 6HR MAX TEMP:  27;

RED WING       CLOUDY    27  21  80 SE6       30.25S WCI  20
STANTON        CLOUDY    29  23  79 SE6       30.22S WCI  23
DODGE CENTER   CLOUDY    27  25  93 S10       30.22S WCI  17
WINONA         CLOUDY    30  23  74 SE3       30.28F
AUSTIN         CLOUDY    27  23  86 S9        30.22F FOG     WCI  17
PRESTON        CLOUDY    27  20  77 S7        30.24F WCI  19
$$
ABBREVIATIONS USED IN REMARKS
   TC - TEMPERATURES IN CELSIUS
  WCI - WIND CHILL INDEX
   HX - HEAT INDEX
  VSB - VISIBILITY
$$



USA.gov is the U.S. government's official web portal to all federal, state and local government web resources and services.